CAPE
1 0 0 0 0 0 0 0 0 0 0 0 0 0 0 0 0 0 0 0 0 1 654 2011 2259 2187 2094 2006 1899 1751 1649 1698 1706 1577 1524 1553 1578 1507 1307 1278 1022 506 110 21 1 0 0 0 0
0 0 0 0 0 0 0 0 0 0 0 0 0 0 0 0 0 0 0 0 0 0 524 1508 2221 2153 2149 2057 1866 1677 1609 1628 1691 1666 1538 1514 1390 1256 1044 1000 715 212 47 28 19 5 0 0 0
0 0 0 0 0 0 0 0 0 0 0 0 0 0 0 9 9 4 0 0 0 25 396 988 2109 2151 2167 2088 1853 1657 1628 1618 1581 1606 1571 1565 1483 1303 1101 996 759 113 48 29 15 0 4 4 0
0 0 0 0 0 0 0 0 0 0 0 0 0 0 0 0 21 15 0 0 0 36 323 850 1975 2225 2181 2124 1896 1702 1678 1640 1631 1645 1635 1611 1553 1372 1161 1021 756 385 41 21 5 6 12 9 4
0 0 0 0 0 0 0 0 0 0 0 0 0 0 0 0 67 0 0 0 0 43 178 715 1892 2235 2269 2254 1984 1853 1760 1644 1652 1694 1731 1761 1600 1461 1230 1033 717 460 252 32 2 20 62 55 31
0 0 0 0 0 0 0 0 0 0 0 0 0 0 0 74 56 0 0 0 0 12 74 575 1716 1999 2106 2189 2032 1885 1759 1690 1692 1737 1754 1762 1714 1572 1337 1109 787 529 458 230 124 119 134 120 119
0 0 0 0 0 0 0 0 0 0 0 0 0 0 0 0 8 0 0 0 0 9 51 423 1012 1484 1997 1968 1940 1881 1795 1691 1689 1695 1659 1722 1778 1654 1462 1232 950 711 587 420 286 294 289 231 228
0 0 0 0 0 0 0 0 0 0 0 0 0 0 0 3 0 0 0 0 0 3 116 313 458 856 1133 1524 1965 1926 1905 1817 1757 1764 1778 1737 1813 1742 1568 1166 1058 846 745 619 568 579 513 395 367
0 0 0 0 0 0 0 0 0 0 0 0 0 0 0 96 0 0 0 0 0 9 132 271 390 455 464 664 1323 1845 1826 1810 1929 1939 1900 1570 1373 1420 1243 1138 876 985 767 701 728 816 730 615 464
0 0 0 0 0 0 0 0 0 0 0 0 0 0 0 49 86 0 0 0 4 3 179 282 350 380 345 460 599 901 1022 1143 1381 1422 1329 1198 834 727 774 932 907 952 835 768 822 902 844 457 190
0 0 0 0 0 0 0 0 0 0 0 0 0 0 0 0 0 75 0 0 0 0 71 270 271 301 284 318 268 417 424 373 442 410 396 435 192 273 538 280 454 293 596 192 493 611 474 146 138
0 0 0 0 0 0 0 0 0 0 0 0 0 0 0 0 0 0 5 11 40 22 36 70 190 232 232 135 232 328 288 207 220 132 108 77 7 0 37 43 33 49 44 83 14 95 179 124 70
0 0 0 0 0 0 0 0 0 0 0 0 0 0 0 0 0 0 0 0 29 66 156 131 106 144 143 66 114 121 172 111 89 48 20 0 0 0 0 0 0 0 0 1 1 0 36 73 95
0 0 0 0 0 0 0 0 0 0 0 0 0 0 0 0 0 0 0 0 0 0 220 184 110 41 24 30 4 14 26 1 2 5 9 0 0 0 0 0 0 0 0 0 0 0 0 0 29
0 0 0 0 0 0 0 0 0 0 0 0 0 0 0 0 0 0 0 0 0 0 3 352 234 47 0 0 0 0 0 0 0 0 0 0 0 0 0 0 0 0 0 0 0 0 0 0 0
0 0 0 0 0 0 0 0 0 0 0 0 0 0 0 0 0 0 0 0 0 0 0 435 588 193 9 0 0 0 0 0 0 0 0 0 0 0 0 0 0 0 0 0 0 0 0 0 0
0 0 0 0 0 0 0 0 0 0 0 0 0 0 0 0 0 0 0 0 0 0 0 0 661 503 232 31 0 0 0 0 0 0 0 6 0 0 0 0 0 0 0 0 0 0 0 0 0
0 0 0 0 0 0 0 0 0 0 0 0 0 0 0 0 0 0 0 0 0 0 0 0 219 706 331 126 4 0 1 22 20 9 12 37 12 9 0 0 0 0 0 0 0 0 0 0 0
0 0 0 0 0 0 0 0 0 0 0 0 0 0 0 0 0 0 0 0 0 0 0 0 0 90 266 179 73 90 106 137 144 166 184 144 82 109 47 25 0 0 0 0 0 0 0 0 0
0 0 0 0 0 0 0 0 0 0 0 0 0 0 0 0 0 0 0 0 0 0 0 0 0 0 105 411 407 348 305 300 332 365 286 281 256 248 121 69 23 6 0 0 0 0 0 0 0
0 0 0 0 0 0 0 0 0 0 0 0 0 0 0 0 0 0 0 0 0 0 0 0 0 0 0 274 163 7 29 36 94 130 428 472 381 381 287 99 129 31 36 0 0 0 3 15 0
0 0 0 0 0 0 0 0 0 0 0 0 0 0 0 0 0 0 0 0 0 0 0 0 0 0 0 1 224 295 457 505 471 387 470 305 401 521 427 174 157 162 120 83 1 0 23 61 42
0 0 0 0 0 0 0 0 0 0 0 0 0 0 0 0 0 0 0 0 0 0 0 0 0 0 0 0 150 253 300 371 312 62 162 163 145 340 535 316 198 193 197 221 123 15 24 53 76
0 0 0 0 0 0 0 0 0 0 0 0 0 0 0 0 0 0 0 0 0 0 0 0 0 0 0 0 38 237 357 285 8 74 215 178 233 371 690 598 444 380 320 232 204 187 118 28 36
0 0 0 0 0 0 0 0 0 0 0 0 0 0 0 0 0 0 0 0 0 0 0 0 0 0 0 0 0 230 459 455 34 172 126 216 326 541 851 696 556 478 448 327 282 283 154 25 5
0 0 0 0 0 0 0 0 0 0 0 0 0 0 0 0 0 0 0 0 0 0 0 0 0 0 0 0 0 5 273 373 155 102 70 192 364 546 834 771 603 530 482 434 391 333 331 21 32
0 0 0 0 0 0 0 0 0 0 0 0 0 0 0 0 0 0 0 0 0 0 0 0 0 0 0 0 0 0 9 199 163 45 159 189 355 494 676 680 606 507 494 447 352 390 148 80 0
0 0 0 0 0 0 0 0 0 0 0 0 0 0 0 0 0 0 0 0 0 0 0 0 0 0 0 0 0 0 0 41 0 22 187 282 427 625 603 605 609 512 555 428 294 236 9 11 0
0 0 0 0 0 1 0 0 0 0 0 0 0 0 0 0 0 0 0 0 0 0 0 0 0 0 0 0 0 0 0 0 0 47 222 389 421 621 652 708 589 582 399 244 277 184 13 0 0
0 0 0 0 0 0 0 0 0 0 0 0 0 0 0 0 0 0 0 0 0 0 0 0 0 0 0 0 0 0 0 0 28 124 274 381 524 658 715 708 600 440 280 192 191 78 15 0 0
CIN
-59 -0 -0 -0 -0 -0 -0 -0 -0 -0 -0 -0 -0 -0 -0 -0 -37 -0 -0 -0 -0 -567 -708 -353 -276 -301 -252 -248 -227 -226 -216 -187 -169 -176 -168 -154 -129 -132 -126 -114 -134 -202 -263 -352 -72 -0 -0 -0 -0
-0 -0 -0 -0 -0 -0 -0 -0 -0 -0 -0 -0 -0 -0 -0 -0 -0 -0 -0 -0 -0 -0 -740 -426 -295 -321 -299 -277 -274 -266 -249 -223 -191 -188 -175 -160 -163 -166 -176 -160 -191 -255 -342 -390 -428 -448 -0 -0 -0
-0 -0 -0 -0 -0 -0 -0 -0 -0 -0 -0 -0 -0 -0 -0 -130 -443 -398 -0 -0 -0 -1115 -801 -532 -297 -351 -326 -297 -299 -290 -278 -260 -239 -226 -198 -187 -180 -189 -185 -178 -210 -330 -368 -400 -433 -0 -332 -316 -0
-0 -0 -0 -0 -0 -0 -0 -0 -0 -0 -0 -0 -0 -0 -0 -0 -410 -643 -0 -0 -0 -1104 -890 -620 -327 -307 -341 -306 -310 -289 -286 -283 -263 -247 -218 -204 -190 -197 -198 -193 -220 -269 -380 -419 -466 -477 -467 -453 -445
-0 -0 -0 -0 -0 -0 -0 -0 -0 -0 -0 -0 -0 -0 -0 -0 -685 -0 -0 -0 -0 -1114 -965 -668 -398 -325 -330 -282 -286 -281 -286 -299 -287 -265 -234 -217 -215 -212 -215 -226 -256 -285 -307 -414 -260 -453 -375 -360 -404
-0 -0 -0 -0 -0 -0 -0 -0 -0 -0 -0 -0 -0 -0 -0 -453 -671 -0 -0 -0 -0 -1103 -1073 -698 -387 -368 -358 -298 -282 -288 -295 -300 -310 -293 -270 -252 -232 -230 -234 -244 -273 -305 -290 -342 -374 -365 -323 -319 -302
-0 -0 -0 -0 -0 -0 -0 -0 -0 -0 -0 -0 -0 -0 -0 -0 -714 -0 -0 -0 -0 -1102 -1067 -775 -529 -400 -379 -354 -329 -305 -297 -295 -329 -319 -313 -293 -267 -248 -252 -255 -274 -305 -297 -310 -330 -305 -282 -291 -272
-0 -0 -0 -0 -0 -0 -0 -0 -0 -0 -0 -0 -0 -0 -0 -525 -0 -0 -0 -0 -0 -544 -996 -842 -745 -586 -516 -448 -336 -317 -290 -277 -305 -320 -305 -305 -283 -266 -265 -304 -291 -306 -294 -297 -286 -257 -238 -254 -243
-0 -0 -0 -0 -0 -0 -0 -0 -0 -0 -0 -0 -0 -0 -0 -497 -0 -0 -0 -0 -0 -671 -977 -871 -796 -750 -749 -677 -483 -341 -310 -284 -257 -274 -277 -305 -331 -320 -342 -338 -360 -307 -314 -311 -281 -245 -237 -230 -249
-0 -0 -0 -0 -0 -0 -0 -0 -0 -0 -0 -0 -0 -0 -0 -376 -453 -0 -0 -0 -902 -187 -900 -863 -825 -800 -841 -752 -688 -579 -519 -439 -366 -357 -374 -348 -428 -453 -450 -377 -345 -324 -318 -299 -275 -240 -226 -306 -384
-0 -0 -0 -0 -0 -0 -0 -0 -0 -0 -0 -0 -0 -0 -0 -0 -9 -375 -0 -0 -0 -0 -891 -784 -830 -861 -860 -856 -895 -758 -749 -742 -654 -648 -656 -596 -737 -656 -484 -625 -478 -525 -383 -517 -360 -305 -309 -443 -437
-0 -0 -0 -0 -0 -0 -0 -0 -0 -0 -0 -0 -0 -0 -0 -0 -0 -0 -226 -419 -462 -649 -728 -822 -833 -815 -899 -952 -926 -846 -843 -894 -855 -927 -917 -901 -533 -0 -895 -838 -849 -776 -744 -644 -729 -555 -441 -446 -465
-0 -0 -0 -0 -0 -0 -0 -0 -0 -0 -0 -0 -0 -0 -0 -0 -0 -0 -0 -0 -267 -351 -488 -682 -831 -866 -864 -1000 -949 -986 -945 -984 -987 -1078 -1084 -347 -0 -0 -0 -0 -0 -0 -0 -170 -196 -0 -547 -468 -431
-0 -0 -0 -0 -0 -0 -0 -0 -0 -0 -0 -0 -0 -0 -0 -0 -0 -0 -0 -0 -0 -0 -302 -490 -682 -899 -963 -985 -627 -1058 -1056 -336 -727 -1173 -1120 -0 -0 -0 -0 -0 -0 -0 -0 -0 -0 -0 -0 -0 -487
-0 -0 -0 -0 -0 -0 -0 -0 -0 -0 -0 -0 -0 -0 -0 -0 -0 -0 -0 -0 -0 -0 -336 -432 -576 -770 -0 -83 -0 -0 -0 -0 -0 -0 -0 -0 -0 -0 -0 -0 -0 -0 -0 -0 -0 -0 -0 -0 -0
-0 -0 -0 -0 -0 -0 -0 -0 -0 -0 -0 -0 -0 -0 -0 -0 -0 -0 -0 -0 -0 -0 -0 -403 -467 -696 -937 -0 -0 -0 -0 -0 -0 -0 -0 -42 -694 -0 -0 -0 -0 -0 -0 -0 -0 -0 -0 -0 -0
-0 -0 -0 -0 -0 -0 -0 -0 -0 -0 -0 -0 -0 -0 -0 -0 -0 -0 -0 -0 -0 -0 -0 -0 -433 -519 -708 -898 -0 -0 -0 -71 -0 -0 -0 -1173 -283 -0 -0 -0 -0 -0 -0 -0 -0 -0 -0 -0 -0
-0 -0 -0 -0 -0 -0 -0 -0 -0 -0 -0 -0 -0 -0 -0 -0 -0 -0 -0 -0 -0 -0 -0 -0 -644 -448 -684 -738 -689 -0 -872 -1013 -1032 -721 -1051 -1076 -1090 -896 -0 -0 -0 -0 -0 -0 -0 -0 -0 -0 -0
-0 -0 -0 -0 -0 -0 -0 -0 -0 -0 -0 -0 -0 -0 -0 -0 -0 -0 -0 -0 -0 -0 -0 -0 -0 -695 -564 -676 -778 -749 -710 -744 -768 -833 -910 -970 -1002 -1013 -1081 -1057 -0 -0 -0 -0 -0 -0 -0 -0 -0
-0 -0 -0 -0 -0 -0 -0 -0 -0 -0 -0 -0 -0 -0 -0 -0 -0 -0 -0 -0 -0 -0 -0 -0 -0 -0 -645 -508 -501 -482 -527 -523 -556 -640 -823 -866 -891 -912 -970 -975 -987 -868 -0 -0 -0 -0 -0 -0 -0
-0 -0 -0 -0 -0 -0 -0 -0 -0 -0 -0 -0 -0 -0 -0 -0 -0 -0 -0 -0 -0 -0 -0 -0 -0 -0 -0 -576 -635 -795 -815 -483 -791 -716 -773 -802 -812 -818 -812 -898 -863 -940 -872 -0 -0 -0 -385 -591 -0
-0 -0 -0 -0 -0 -0 -0 -0 -0 -0 -0 -0 -0 -0 -0 -0 -0 -0 -0 -0 -0 -0 -0 -0 -0 -0 -0 -49 -539 -463 -344 -327 -418 -551 -629 -858 -801 -715 -726 -831 -793 -749 -755 -764 -262 -0 -616 -527 -437
-0 -0 -0 -0 -0 -0 -0 -0 -0 -0 -0 -0 -0 -0 -0 -0 -0 -0 -0 -0 -0 -0 -0 -0 -0 -0 -0 -0 -533 -472 -423 -302 -435 -868 -802 -748 -827 -773 -684 -719 -738 -723 -664 -620 -609 -678 -630 -531 -405
-0 -0 -0 -0 -0 -0 -0 -0 -0 -0 -0 -0 -0 -0 -0 -0 -0 -0 -0 -0 -0 -0 -0 -0 -0 -0 -0 -0 -695 -476 -388 -437 -451 -817 -648 -724 -761 -709 -608 -605 -621 -606 -598 -596 -558 -551 -546 -541 -343
-0 -0 -0 -0 -0 -0 -0 -0 -0 -0 -0 -0 -0 -0 -0 -0 -0 -0 -0 -0 -0 -0 -0 -0 -0 -0 -0 -0 -98 -493 -412 -415 -657 -568 -730 -753 -690 -636 -561 -562 -556 -529 -524 -542 -514 -503 -506 -497 -194
-0 -0 -0 -0 -0 -0 -0 -0 -0 -0 -0 -0 -0 -0 -0 -0 -0 -0 -0 -0 -0 -0 -0 -0 -0 -0 -0 -0 -0 -409 -459 -407 -515 -593 -768 -699 -648 -597 -534 -501 -493 -465 -462 -441 -415 -421 -388 -501 -438
-0 -0 -0 -0 -0 -0 -0 -0 -0 -0 -0 -0 -0 -0 -0 -0 -0 -0 -0 -0 -0 -0 -0 -0 -0 -0 -0 -0 -0 -0 -466 -490 -497 -750 -735 -769 -687 -598 -528 -479 -444 -420 -386 -345 -323 -327 -401 -427 -20
-0 -0 -0 -0 -0 -0 -0 -0 -0 -0 -0 -0 -0 -0 -0 -0 -0 -0 -0 -0 -0 -0 -0 -0 -0 -0 -0 -0 -0 -0 -0 -357 -0 -771 -788 -741 -667 -539 -502 -435 -396 -357 -309 -250 -285 -304 -464 -451 -0
-0 -0 -0 -0 -0 -1 -1 -0 -0 -0 -0 -0 -0 -0 -0 -0 -0 -0 -0 -0 -0 -0 -0 -0 -0 -0 -0 -0 -0 -0 -0 -0 -0 -822 -725 -679 -629 -511 -436 -398 -360 -315 -279 -250 -258 -255 -408 -0 -0
-0 -0 -0 -0 -0 -0 -0 -0 -0 -0 -0 -0 -0 -0 -0 -0 -0 -0 -0 -0 -0 -0 -0 -0 -0 -0 -0 -0 -0 -0 -0 -0 -887 -762 -671 -636 -538 -430 -414 -355 -326 -299 -270 -267 -233 -287 -353 -0 -0
Wind_Speed
3 4 2 4 4 5 3 7 1 2 6 3 4 4 9 7 8 9 5 13 17 16 16 19 22 24 23 22 22 21 20 19 18 17 17 17 17 17 16 14 14 14 13 11 11 10 9 8 8
5 1 3 3 5 1 5 4 2 3 6 7 9 3 5 15 19 6 3 9 19 19 15 15 22 23 23 22 23 22 22 21 20 19 18 17 17 16 17 15 14 13 13 12 11 10 9 8 7
2 2 3 4 4 7 4 3 4 4 8 4 5 5 4 5 2 6 6 13 17 18 15 13 20 23 23 22 21 22 23 23 22 21 19 18 17 17 16 15 14 15 14 13 12 11 9 8 7
2 3 4 3 9 4 3 3 3 9 5 3 1 9 7 4 3 9 12 12 18 16 15 17 21 21 23 22 21 20 22 22 22 21 20 18 17 16 15 14 14 14 14 14 12 11 10 9 6
3 3 1 3 9 3 2 4 4 7 6 6 4 7 7 4 9 6 18 15 18 15 12 14 22 21 21 20 19 19 20 21 21 21 20 19 18 17 16 15 15 14 13 14 13 12 9 8 7
1 3 1 5 10 4 4 6 3 2 4 10 6 6 7 7 5 1 11 8 10 18 13 10 17 19 20 20 18 18 19 20 21 21 21 20 19 18 17 15 15 14 13 12 12 11 10 8 7
4 3 4 4 1 2 8 4 5 3 5 6 7 4 8 6 5 5 7 8 7 10 10 8 9 12 18 19 18 17 17 18 20 20 20 20 19 17 16 15 14 14 13 12 12 12 11 9 8
4 3 3 4 2 3 3 2 4 2 5 8 4 6 13 11 6 9 10 8 7 6 7 9 8 9 9 11 16 15 14 14 16 17 17 17 17 16 16 15 14 14 13 13 13 13 12 10 9
3 2 4 5 5 2 3 3 3 3 5 5 4 4 5 3 6 8 5 5 4 5 5 5 8 7 8 7 10 13 15 14 13 13 14 11 6 9 13 13 15 14 14 14 14 13 13 11 11
4 5 7 0 3 2 6 0 6 4 6 3 5 6 7 3 4 6 4 2 1 1 2 4 6 8 8 7 6 6 7 6 6 6 7 6 8 6 7 9 14 14 13 12 13 12 13 12 4
3 5 3 1 1 2 5 8 3 5 7 3 10 11 10 4 6 2 5 4 3 4 2 4 4 5 9 8 5 4 4 4 4 5 5 5 3 3 2 2 3 3 9 3 6 6 4 5 4
0 3 4 5 5 5 3 7 8 9 5 7 8 9 7 9 7 4 6 8 6 5 7 6 6 5 6 5 6 7 6 6 6 7 7 5 3 4 3 2 4 4 3 4 4 2 3 4 5
3 2 6 7 6 6 7 8 7 19 8 8 9 7 9 9 9 5 7 4 6 11 10 10 7 8 7 7 6 6 8 8 8 6 7 6 5 5 5 4 3 4 3 4 3 3 4 5 6
1 2 5 6 6 5 6 14 5 16 5 9 7 9 8 7 9 4 4 8 7 6 12 14 17 12 7 9 7 7 5 5 4 5 7 9 7 6 6 5 5 4 4 4 5 5 5 5 5
4 5 5 7 4 6 8 11 16 6 5 8 9 7 8 7 8 6 6 8 10 7 7 12 14 14 16 12 7 5 6 5 5 4 6 9 9 8 8 6 6 6 5 5 4 4 3 4 5
4 4 3 5 4 4 7 6 5 4 7 5 6 5 7 7 6 6 5 3 8 8 7 7 10 13 13 14 8 5 5 6 6 6 8 11 10 10 8 6 7 5 5 5 5 4 4 5 5
5 1 3 7 5 4 0 4 7 14 5 6 9 6 5 6 6 6 7 8 9 8 9 7 6 13 15 13 10 9 7 6 6 5 7 10 10 11 8 7 6 6 5 5 6 4 5 4 5
4 2 3 4 7 5 8 7 6 7 7 9 8 7 6 6 7 7 8 8 9 10 9 6 7 9 10 6 4 4 5 5 6 9 9 12 10 11 9 6 7 6 5 5 5 5 4 3 4
3 3 5 5 5 5 8 16 10 7 7 9 8 7 7 6 5 4 5 7 7 8 9 11 4 7 4 4 5 4 8 8 8 10 12 11 9 10 10 6 7 8 8 7 7 4 5 5 2
4 3 5 5 6 7 9 23 18 13 9 9 7 7 8 3 4 4 7 6 7 7 10 10 9 5 7 6 5 5 7 7 8 6 7 10 10 11 10 9 9 9 6 7 8 7 3 3 5
3 4 3 6 3 6 7 10 5 6 2 3 6 7 7 5 1 5 5 6 7 9 8 10 10 9 6 8 2 1 2 3 3 4 5 11 12 11 11 10 8 9 8 7 9 10 8 5 3
3 4 4 5 4 3 4 8 3 8 9 4 8 9 8 8 7 3 8 6 7 8 9 9 10 10 9 7 7 11 11 11 9 5 6 5 10 10 11 10 10 9 7 7 9 8 7 5 5
8 3 3 3 3 2 3 4 6 5 4 8 9 8 6 9 8 10 11 9 11 7 8 10 9 10 10 8 10 10 12 11 6 4 7 7 7 9 10 10 10 9 7 8 9 9 7 5 4
3 4 5 4 3 3 6 5 1 2 6 6 7 8 7 7 8 9 10 10 11 10 10 9 10 9 10 10 12 15 16 13 6 6 6 5 4 4 7 9 8 8 8 9 9 9 9 8 4
6 7 6 6 2 6 1 4 9 11 17 6 8 8 9 8 9 11 14 15 14 15 16 12 11 13 10 11 12 14 18 16 15 11 8 7 4 3 8 8 8 7 8 9 9 8 8 9 6
4 7 6 6 4 6 3 10 9 6 9 7 6 7 8 9 6 11 16 16 16 17 18 17 13 16 12 10 14 13 17 12 11 11 7 7 7 7 8 9 8 8 8 7 7 6 6 7 6
2 4 5 2 2 2 6 9 13 16 12 5 7 8 9 7 8 14 16 18 18 17 17 18 16 19 15 14 13 15 14 15 12 11 11 9 7 7 9 10 10 9 8 8 7 6 7 7 6
5 5 0 4 3 6 5 7 12 12 15 5 10 10 9 6 10 14 19 18 18 20 16 17 17 19 17 17 14 13 14 14 12 10 11 11 9 10 11 11 10 9 8 8 7 5 6 8 5
1 1 3 3 5 5 5 8 6 6 9 9 9 9 10 8 9 16 19 19 17 18 16 17 19 18 16 15 17 14 13 13 10 11 10 10 9 11 12 12 11 10 9 8 8 7 9 8 7
5 6 6 5 5 5 3 17 4 14 13 7 11 13 8 8 7 16 19 19 19 18 16 19 19 17 15 15 16 15 11 11 13 11 10 10 11 11 12 11 11 11 10 9 10 9 8 9 8
Wind_Direction
302 5 87 42 55 59 267 264 272 339 337 236 203 169 215 193 174 214 318 177 131 151 164 168 171 157 156 153 152 150 148 144 142 139 141 143 147 147 152 156 159 157 156 151 146 144 140 136 129
23 93 48 75 99 279 274 251 227 214 240 278 289 218 226 247 224 306 92 210 145 151 162 170 172 160 158 158 157 155 152 150 150 147 152 153 155 156 159 163 161 160 160 159 152 147 146 144 135
90 332 98 124 142 216 218 187 220 250 261 239 281 238 240 244 241 212 227 164 145 151 158 171 175 164 161 162 161 160 156 155 155 154 160 161 164 161 164 167 165 167 167 162 159 156 154 152 150
106 350 58 150 224 221 201 215 266 323 317 258 281 305 305 250 243 179 132 153 144 150 159 171 178 174 162 166 165 166 161 158 159 159 164 166 169 167 170 171 171 172 172 167 164 164 165 161 158
34 56 89 226 247 137 226 260 282 298 279 292 330 282 266 9 334 145 139 154 153 154 162 174 176 178 164 165 169 169 168 165 164 165 170 171 172 173 174 175 177 178 178 171 169 169 171 169 166
36 123 133 219 242 101 356 263 255 244 287 293 334 298 284 327 17 106 130 154 164 154 155 175 184 175 164 166 172 176 175 174 170 171 176 176 176 178 178 178 181 183 181 175 172 171 176 173 167
165 138 228 259 61 108 175 245 296 320 298 304 291 341 297 357 65 62 93 106 118 141 141 158 174 187 167 171 173 178 181 186 177 179 181 180 180 182 179 180 185 186 184 180 176 176 181 179 181
144 138 214 241 239 222 277 39 281 330 290 317 9 11 334 335 17 80 63 61 98 112 143 164 170 176 174 170 174 178 187 194 189 184 188 187 185 183 182 185 190 189 188 183 182 182 184 184 188
137 107 236 232 133 212 242 55 315 298 274 336 323 1 303 330 67 30 56 48 69 131 155 170 173 173 164 153 175 180 192 199 201 194 197 195 193 192 190 190 192 194 196 190 189 187 186 188 192
159 168 216 328 113 22 293 352 329 302 316 287 313 334 342 333 73 76 13 309 282 243 289 196 182 177 158 167 168 166 183 190 193 192 188 200 204 204 186 192 203 202 202 200 196 195 191 195 178
181 210 205 270 130 252 274 297 221 293 295 357 314 320 332 347 335 209 165 199 209 236 210 231 239 185 178 170 162 171 181 171 186 188 167 175 173 197 207 169 189 192 209 197 203 196 197 184 177
179 286 5 322 347 320 287 313 287 261 263 303 303 292 296 321 315 298 229 187 184 195 196 210 213 225 199 170 177 184 187 189 197 193 180 177 174 173 187 214 196 186 192 192 196 184 185 197 202
153 354 321 304 295 281 288 270 272 279 284 279 290 296 288 283 270 282 279 262 230 180 195 192 192 225 218 203 186 190 200 200 205 185 186 178 180 183 163 211 209 202 171 191 189 181 197 209 215
307 238 270 265 239 246 252 276 244 269 18 321 284 284 272 277 268 268 290 278 242 250 213 192 189 196 205 211 212 199 204 200 187 194 198 188 183 185 179 190 215 210 190 190 182 184 197 211 207
315 318 310 227 231 238 200 257 251 311 352 264 298 324 305 318 343 311 260 271 284 255 222 199 199 197 187 204 207 192 188 188 194 187 203 196 185 192 183 187 211 213 192 184 172 182 190 212 212
34 36 359 290 338 279 150 263 317 50 360 315 304 316 318 327 341 338 352 291 280 294 269 225 188 192 208 197 187 205 205 200 205 217 198 198 194 190 189 186 212 191 184 185 169 167 199 224 212
358 234 287 313 321 278 21 280 314 328 326 295 300 290 284 296 321 322 339 329 313 296 286 298 262 197 201 208 194 193 195 202 205 208 198 197 201 191 190 193 200 170 187 188 167 180 188 204 221
253 303 291 262 296 355 303 285 287 305 310 290 286 299 293 307 298 313 323 325 320 317 314 283 215 237 197 186 191 179 186 207 202 211 208 196 198 188 191 189 183 173 180 180 169 184 181 209 220
231 202 220 257 266 343 292 288 284 264 265 274 267 269 280 279 266 275 297 308 317 311 320 313 266 233 203 180 170 189 213 219 222 216 213 201 185 186 188 191 179 185 190 189 180 158 172 216 171
208 245 260 283 297 313 293 290 287 262 233 223 249 271 270 251 254 293 322 320 311 296 299 300 298 251 216 206 222 193 188 215 230 221 200 186 186 186 187 187 191 186 181 171 170 177 168 181 183
217 227 244 242 280 271 302 290 297 330 265 235 262 254 269 279 334 295 307 308 308 303 284 277 282 281 233 217 133 73 96 117 144 208 200 206 191 178 192 192 184 180 181 180 179 190 181 160 187
281 216 246 281 0 294 61 279 221 232 251 303 279 289 294 297 317 229 297 299 292 292 298 272 272 274 274 226 203 214 224 217 212 206 212 187 173 185 189 186 190 185 177 174 186 187 190 135 163
233 353 285 277 280 348 289 295 259 143 209 287 295 263 271 295 294 302 313 302 300 285 274 287 266 263 264 254 225 224 233 232 218 157 156 183 186 186 188 185 187 181 179 177 178 172 166 167 152
345 5 354 47 72 329 242 197 240 178 124 262 264 287 280 281 293 300 297 301 300 300 290 277 279 259 254 247 236 231 233 227 202 166 175 182 164 164 188 188 188 186 180 174 178 175 166 176 160
70 50 339 337 10 232 193 291 247 288 303 248 258 275 291 299 307 309 315 318 312 308 307 299 284 277 254 234 237 224 229 226 213 206 172 163 148 171 203 181 184 189 184 175 171 162 161 169 166
231 150 165 252 222 268 306 258 257 240 251 231 241 277 286 300 304 313 315 309 303 303 300 296 283 281 274 246 238 228 228 224 219 206 179 171 173 189 172 186 187 186 174 170 167 158 159 163 153
198 167 193 244 204 355 221 290 297 270 256 280 265 254 277 291 305 318 321 310 301 294 290 283 279 278 270 253 237 233 225 222 212 204 185 171 168 163 169 177 178 170 160 166 160 153 159 147 148
163 167 164 9 293 264 259 250 244 288 289 248 287 295 296 293 310 318 318 300 286 285 282 272 271 270 266 261 233 225 220 216 202 185 180 171 164 158 159 173 167 159 158 167 151 148 152 142 145
139 285 90 145 161 218 296 252 217 239 261 268 268 273 278 279 308 314 324 317 297 288 281 276 276 269 264 251 238 222 209 197 185 188 182 171 150 160 170 168 161 161 157 170 143 160 150 141 141
167 200 166 163 237 224 229 267 257 269 280 293 287 296 259 257 299 331 338 320 320 309 296 297 286 267 253 247 226 215 198 175 177 177 171 154 164 170 162 159 157 154 163 153 155 155 151 146 163